This is the latest recevied weather packets stored in our database for station/object K2CAT. If no packets are shown the sender has not sent any weather packets the latest 10 day(s).
| Time | Temp. | Humidity | Pressure | Rain* | Wind** | Luminosity | Snow |
|---|---|---|---|---|---|---|---|
| 1777163962 | 5.56° C | 97% | 1018.7 hPa | 3.05 mm | - | 0 W/m² | - |
| 1777163662 | 5.56° C | 97% | 1018.8 hPa | 3.56 mm | - | 0 W/m² | - |
| 1777163356 | 5.56° C | 97% | 1018.9 hPa | 3.05 mm | - | 0 W/m² | - |
| 1777163054 | 5.56° C | 97% | 1018.5 hPa | 1.27 mm | - | 0 W/m² | - |
| 1777162754 | 5.56° C | 97% | 1018.7 hPa | 1.78 mm | - | 0 W/m² | - |
| 1777162449 | 5.56° C | 97% | 1018.4 hPa | 3.05 mm | - | 0 W/m² | - |
| 1777162148 | 6.11° C | 97% | 1018.5 hPa | 3.05 mm | - | 0 W/m² | - |
| 1777161844 | 6.11° C | 97% | 1018.6 hPa | 3.05 mm | - | 0 W/m² | - |
| 1777161541 | 6.11° C | 97% | 1018.2 hPa | 3.05 mm | - | 0 W/m² | - |
| 1777161237 | 6.11° C | 97% | 1018.2 hPa | 3.05 mm | - | 0 W/m² | - |
| 1777160933 | 6.11° C | 97% | 1018 hPa | 1.27 mm | - | 0 W/m² | - |
| 1777160628 | 6.11° C | 97% | 1018 hPa | 1.78 mm | - | 0 W/m² | - |
| 1777160325 | 6.11° C | 97% | 1017.9 hPa | 3.05 mm | - | 1 W/m² | - |
| 1777160021 | 6.11° C | 96% | 1017.7 hPa | 4.32 mm | - | 1 W/m² | - |
| 1777159717 | 6.11° C | 96% | 1017.7 hPa | 4.83 mm | - | 2 W/m² | - |
| 1777159412 | 6.11° C | 96% | 1017.7 hPa | 3.05 mm | - | 2 W/m² | - |
| 1777159109 | 6.11° C | 96% | 1017.5 hPa | 3.05 mm | - | 3 W/m² | - |
| 1777158806 | 6.11° C | 96% | 1017.7 hPa | 3.05 mm | - | 4 W/m² | - |
| 1777158505 | 6.11° C | 96% | 1017.5 hPa | 4.32 mm | - | 4 W/m² | - |
| 1777158200 | 6.11° C | 96% | 1017.5 hPa | 4.32 mm | - | 4 W/m² | - |
| 1777157896 | 6.11° C | 96% | 1017.4 hPa | 4.83 mm | - | 5 W/m² | - |
| 1777157592 | 6.11° C | 95% | 1017.1 hPa | 3.05 mm | - | 7 W/m² | - |
| 1777157289 | 6.11° C | 95% | 1017.2 hPa | 3.05 mm | - | 6 W/m² | - |
| 1777156988 | 6.11° C | 95% | 1017.2 hPa | 3.05 mm | - | 7 W/m² | - |
| 1777156684 | 6.67° C | 95% | 1017.2 hPa | 3.05 mm | - | 8 W/m² | - |
* Rain latest hour (hover to see other rain measurements)
** Current wind speed in m/s (hover to see current wind gust speed)